Temp
13 14 14 14 14 15 15 15 16 17 17 18 19 20 20 21 21 22 22 21 21 21 21 21 20 20 20 20 20 20 21 21 22 21 23 22 22 23 23 23 23 23 23 23 23
13 13 13 14 14 14 15 15 16 16 17 18 19 19 20 22 22 21 22 22 21 21 21 21 21 20 20 20 19 20 21 21 21 22 23 22 20 22 23 23 23 23 23 23 23
13 13 13 13 14 14 14 15 16 16 17 18 19 20 20 22 22 21 21 22 21 21 21 21 20 20 20 19 19 17 21 20 21 21 21 22 22 23 24 25 24 25 24 24 23
13 13 13 13 14 14 14 14 14 15 16 17 18 19 20 21 21 22 22 21 21 20 20 20 20 20 19 21 19 20 20 20 21 21 20 22 22 23 23 26 26 25 24 24 24
13 13 13 13 13 14 14 14 14 14 15 16 18 18 20 20 21 22 22 22 21 20 20 20 20 20 20 19 19 19 20 20 21 21 20 20 22 23 23 25 26 26 26 25 24
10 13 13 12 13 13 14 14 14 14 15 15 16 17 18 18 21 21 21 21 21 21 20 20 21 21 20 20 20 20 19 20 20 21 20 21 22 20 25 26 25 26 26 26 26
8 9 12 12 13 13 13 14 14 14 14 15 15 16 17 20 21 21 21 21 21 20 20 20 20 20 20 20 20 19 19 19 20 20 21 20 23 22 24 23 23 24 24 25 26
9 9 9 12 12 13 13 14 14 14 14 14 15 15 16 20 21 21 22 21 21 21 20 20 20 20 20 20 19 19 19 20 22 20 21 21 23 24 23 23 23 22 23 23 25
9 9 9 9 11 12 13 13 14 14 14 14 14 15 16 19 20 21 21 21 21 21 20 20 20 20 19 19 20 18 20 19 21 20 21 22 22 23 23 21 22 22 24 24 24
7 8 9 9 9 10 12 13 13 14 14 13 13 14 17 18 19 20 20 21 20 20 19 19 19 19 17 19 20 19 19 18 19 21 20 20 20 22 21 20 21 22 23 24 24
6 7 8 8 9 9 10 11 13 13 12 15 15 17 17 18 18 19 20 20 18 19 19 18 19 19 19 18 19 18 18 18 19 20 18 20 20 22 22 20 20 21 22 24 24
6 6 7 8 8 9 8 9 10 9 10 13 14 14 16 17 16 18 18 19 18 19 17 18 18 19 18 17 18 18 18 18 19 19 19 22 21 22 21 21 21 22 22 23 24
5 5 6 7 7 8 8 8 8 9 9 12 14 15 16 16 16 18 18 18 18 17 18 19 19 17 18 17 17 18 18 18 19 19 20 19 22 22 22 20 21 22 23 23 22
4 4 5 6 7 6 7 7 8 8 9 12 12 14 15 16 16 18 18 19 18 18 16 18 19 18 17 18 18 18 18 19 18 18 20 19 21 21 21 22 22 22 22 23 23
4 4 4 5 6 6 6 6 7 8 8 11 13 15 15 16 19 17 20 18 18 17 18 18 17 17 18 19 18 18 18 18 18 18 18 18 20 23 20 23 24 23 21 22 23
3 3 4 4 4 5 7 6 6 7 7 9 13 13 13 15 16 18 17 18 19 17 16 18 18 18 19 17 18 19 18 17 17 18 18 20 21 23 23 23 23 22 22 22 23
3 2 3 3 3 4 5 6 6 6 8 11 13 13 13 14 15 17 16 16 18 16 17 18 18 18 19 19 18 19 19 18 18 18 19 17 19 22 22 21 21 21 22 21 22
2 2 2 2 3 3 4 5 6 8 8 12 12 13 14 14 14 16 16 17 18 19 19 18 18 18 19 20 20 18 19 17 18 18 19 17 19 22 21 21 21 21 20 22 22
1 1 1 3 2 3 4 3 5 8 10 10 13 13 14 14 15 14 15 17 18 19 18 18 18 18 17 19 20 17 17 20 17 15 17 19 19 21 20 20 19 20 19 21 22
-0 -0 -0 2 2 2 2 3 5 6 7 8 10 13 14 15 14 14 15 17 17 18 19 19 18 19 18 19 19 20 19 17 17 18 18 19 19 22 20 20 19 19 19 20 20
-1 -1 1 2 0 2 1 2 5 7 6 7 9 10 11 13 15 15 15 17 18 18 18 17 18 17 17 17 18 18 18 17 18 17 19 19 20 18 21 21 19 19 18 20 20
-1 -1 1 0 0 1 1 3 5 6 6 7 8 7 8 11 12 15 16 18 17 18 17 18 17 17 19 17 17 19 19 19 19 17 16 18 20 18 18 19 18 18 18 19 19
-1 -1 0 0 0 1 2 3 4 6 6 6 7 8 8 9 10 13 14 17 16 16 16 16 15 16 17 18 16 18 17 19 18 15 17 17 20 17 17 17 17 18 17 17 17
-2 -1 -2 -1 0 1 1 2 3 4 5 5 7 8 5 5 8 11 14 15 15 15 18 17 15 17 17 19 19 16 17 17 18 14 19 18 21 19 18 19 18 17 18 18 17
-2 -1 0 -1 -1 1 2 3 3 3 5 5 5 6 6 5 6 8 11 14 14 14 14 14 15 15 18 18 16 17 19 17 17 19 18 20 18 19 19 19 17 17 17 16 16
-1 -1 -1 1 0 0 1 1 1 2 3 4 5 6 7 6 5 6 10 12 14 13 13 13 14 14 16 16 16 17 17 17 18 18 18 18 18 18 17 17 16 15 14 13 13
-2 -1 -0 1 1 0 0 1 2 3 3 3 4 4 5 7 8 6 7 10 11 11 12 13 10 12 14 15 14 13 16 15 16 16 18 17 20 16 16 15 15 13 12 12 12
Height
1540 1540 1541 1541 1541 1542 1541 1540 1539 1538 1537 1537 1536 1535 1534 1532 1530 1529 1530 1532 1532 1531 1531 1531 1532 1533 1533 1534 1534 1533 1536 1541 1538 1537 1532 1529 1527 1522 1521 1521 1521 1522 1523 1522 1523
1538 1538 1538 1539 1539 1540 1540 1540 1538 1537 1536 1535 1534 1534 1532 1531 1530 1529 1532 1531 1532 1532 1532 1532 1531 1533 1533 1534 1535 1534 1536 1535 1533 1531 1529 1528 1528 1523 1522 1521 1520 1519 1519 1520 1522
1535 1537 1537 1537 1538 1538 1539 1539 1538 1536 1535 1534 1533 1532 1531 1530 1530 1531 1531 1532 1532 1533 1532 1533 1532 1533 1533 1533 1535 1535 1533 1532 1530 1529 1528 1526 1524 1523 1520 1517 1516 1516 1515 1516 1518
1533 1534 1535 1535 1535 1536 1536 1537 1537 1535 1534 1532 1532 1531 1530 1531 1533 1529 1530 1531 1532 1533 1533 1532 1532 1532 1533 1532 1531 1534 1530 1529 1528 1527 1527 1525 1522 1521 1519 1515 1514 1513 1514 1514 1515
1530 1531 1532 1533 1533 1533 1533 1535 1535 1534 1533 1531 1530 1530 1530 1531 1529 1528 1528 1529 1530 1533 1533 1532 1531 1531 1531 1531 1532 1531 1527 1526 1526 1525 1523 1523 1518 1518 1514 1512 1513 1512 1512 1511 1511
1526 1526 1529 1530 1530 1530 1530 1531 1532 1534 1531 1530 1529 1529 1530 1531 1527 1527 1527 1527 1528 1530 1533 1532 1531 1531 1529 1530 1530 1527 1526 1523 1520 1517 1518 1517 1515 1516 1509 1508 1508 1509 1508 1508 1507
1522 1523 1524 1526 1527 1527 1528 1528 1529 1531 1531 1529 1529 1527 1526 1526 1525 1525 1526 1526 1527 1528 1528 1532 1532 1531 1529 1528 1527 1526 1526 1522 1517 1515 1513 1511 1510 1509 1505 1506 1504 1504 1504 1503 1502
1518 1520 1521 1521 1523 1524 1525 1526 1527 1526 1529 1528 1527 1527 1521 1519 1520 1521 1521 1523 1525 1526 1528 1528 1530 1530 1530 1529 1527 1526 1527 1524 1515 1515 1513 1513 1512 1503 1503 1503 1501 1500 1497 1496 1495
1516 1516 1517 1518 1518 1519 1521 1523 1524 1524 1525 1525 1527 1525 1518 1515 1514 1516 1517 1518 1521 1524 1525 1526 1528 1527 1530 1530 1530 1529 1529 1529 1517 1514 1515 1515 1513 1502 1499 1500 1495 1493 1490 1488 1488
1515 1514 1514 1514 1515 1515 1517 1521 1521 1521 1522 1523 1523 1529 1515 1513 1511 1512 1513 1514 1517 1521 1524 1524 1526 1527 1529 1531 1536 1531 1531 1530 1527 1514 1512 1511 1510 1501 1495 1494 1490 1487 1484 1482 1482
1513 1513 1511 1512 1512 1513 1514 1518 1521 1520 1517 1516 1515 1512 1512 1511 1510 1510 1512 1511 1514 1518 1521 1521 1525 1523 1522 1526 1527 1529 1530 1530 1522 1513 1515 1505 1504 1494 1486 1486 1484 1481 1480 1478 1478
1509 1510 1509 1510 1510 1511 1512 1518 1517 1520 1515 1510 1511 1509 1510 1510 1511 1509 1511 1511 1511 1513 1517 1522 1519 1515 1520 1523 1526 1527 1528 1526 1519 1513 1512 1499 1498 1484 1483 1482 1479 1477 1477 1477 1477
1507 1509 1508 1508 1510 1510 1512 1518 1517 1518 1518 1504 1503 1502 1505 1509 1506 1504 1510 1507 1505 1512 1511 1512 1511 1511 1514 1520 1524 1523 1526 1522 1521 1514 1508 1507 1494 1488 1482 1481 1478 1476 1473 1473 1473
1507 1506 1506 1507 1511 1509 1511 1510 1512 1516 1519 1502 1497 1488 1494 1501 1497 1498 1503 1507 1504 1504 1509 1510 1506 1509 1515 1515 1519 1522 1514 1513 1517 1519 1516 1508 1512 1494 1486 1483 1478 1475 1473 1471 1470
1507 1506 1505 1507 1508 1509 1512 1510 1511 1515 1520 1497 1492 1488 1484 1486 1481 1482 1491 1500 1500 1500 1504 1500 1504 1507 1510 1502 1512 1513 1509 1511 1513 1515 1516 1514 1513 1488 1488 1483 1478 1474 1473 1471 1470
1506 1505 1505 1507 1509 1509 1512 1514 1513 1522 1519 1502 1485 1484 1487 1482 1476 1479 1483 1490 1494 1498 1499 1495 1497 1497 1495 1498 1502 1504 1510 1512 1515 1515 1522 1501 1501 1489 1482 1477 1477 1473 1471 1470 1470
1503 1503 1505 1506 1509 1509 1512 1515 1519 1518 1506 1490 1479 1477 1480 1482 1481 1478 1475 1480 1485 1500 1499 1490 1491 1490 1491 1497 1503 1503 1509 1522 1523 1524 1511 1506 1506 1480 1473 1471 1473 1472 1470 1469 1469
1501 1501 1503 1507 1509 1511 1513 1517 1513 1489 1490 1474 1474 1471 1471 1472 1474 1478 1479 1475 1471 1472 1479 1491 1494 1484 1480 1480 1489 1498 1500 1515 1520 1519 1505 1507 1502 1477 1466 1466 1468 1471 1472 1469 1467
1497 1497 1500 1505 1508 1511 1514 1516 1499 1486 1479 1479 1475 1473 1467 1467 1467 1471 1474 1470 1462 1461 1472 1480 1478 1468 1468 1472 1480 1492 1499 1482 1503 1514 1512 1492 1485 1469 1463 1463 1465 1467 1469 1467 1466
1493 1495 1497 1503 1506 1510 1513 1505 1488 1482 1484 1484 1479 1466 1462 1457 1465 1465 1465 1460 1464 1460 1455 1460 1473 1461 1464 1470 1474 1474 1476 1497 1499 1506 1507 1487 1484 1468 1464 1461 1460 1462 1465 1466 1467
1493 1495 1495 1497 1503 1507 1505 1497 1483 1479 1483 1490 1482 1475 1468 1461 1451 1453 1450 1446 1451 1451 1453 1459 1461 1465 1463 1462 1464 1476 1476 1478 1479 1484 1483 1484 1469 1454 1450 1448 1456 1458 1461 1462 1463
1491 1494 1493 1494 1500 1497 1492 1489 1484 1479 1483 1483 1484 1486 1479 1466 1463 1447 1443 1433 1437 1439 1451 1446 1454 1460 1453 1452 1452 1450 1453 1460 1469 1480 1482 1472 1460 1446 1446 1448 1452 1457 1459 1459 1461
1486 1488 1490 1491 1488 1488 1486 1484 1484 1479 1480 1481 1478 1481 1481 1473 1468 1456 1441 1430 1429 1433 1438 1442 1452 1461 1457 1454 1454 1453 1454 1449 1454 1465 1466 1473 1449 1443 1445 1446 1451 1455 1456 1456 1457
1480 1480 1484 1483 1481 1481 1484 1482 1481 1475 1477 1479 1475 1476 1484 1478 1469 1456 1441 1430 1428 1429 1429 1430 1438 1440 1443 1433 1437 1451 1444 1445 1449 1472 1447 1451 1439 1443 1442 1443 1446 1449 1448 1450 1452
1467 1464 1465 1470 1471 1476 1480 1475 1472 1474 1470 1470 1468 1472 1474 1479 1470 1454 1443 1432 1430 1428 1429 1432 1436 1439 1431 1432 1436 1433 1433 1440 1447 1437 1447 1435 1446 1439 1436 1437 1442 1443 1446 1450 1449
1456 1457 1458 1456 1460 1468 1471 1466 1468 1467 1468 1462 1463 1464 1463 1465 1468 1463 1448 1439 1434 1429 1429 1431 1437 1438 1432 1431 1433 1433 1431 1430 1429 1436 1438 1439 1437 1432 1433 1436 1440 1444 1447 1447 1447
1448 1445 1449 1447 1452 1457 1451 1450 1452 1455 1458 1461 1464 1461 1461 1457 1458 1456 1454 1449 1440 1433 1428 1435 1445 1449 1435 1432 1436 1445 1422 1430 1428 1427 1427 1437 1421 1430 1434 1434 1438 1442 1442 1442 1444
Wind_Speed
14 13 11 10 9 9 9 9 9 10 12 15 14 13 16 15 17 4 5 5 7 2 3 7 8 7 4 1 2 4 2 2 3 2 6 6 7 6 4 3 5 6 7 3 1
16 15 14 13 12 11 11 11 11 12 13 14 15 15 14 15 11 7 1 6 5 2 4 8 8 5 1 1 2 2 2 6 4 3 4 9 2 8 2 3 7 10 15 12 10
17 18 17 16 15 14 13 12 13 14 15 15 15 15 14 12 4 4 4 5 7 5 5 7 4 2 2 3 3 2 3 4 6 9 4 7 8 5 3 3 11 13 19 18 16
19 18 18 17 17 17 16 14 13 14 16 16 16 17 14 9 2 2 3 4 8 7 6 7 5 2 1 2 4 2 8 6 4 6 3 8 9 5 7 12 12 10 14 19 21
18 19 19 18 18 18 17 17 17 14 15 17 17 16 14 8 4 4 2 3 6 8 8 7 6 4 2 3 2 4 4 4 8 15 18 12 16 10 12 17 14 15 14 18 24
18 19 18 18 19 18 18 18 17 17 16 16 17 16 13 5 4 4 4 5 5 6 8 8 4 4 3 3 4 3 6 12 15 19 10 9 6 6 15 13 17 18 15 19 19
18 19 19 19 20 19 19 18 17 17 17 17 16 18 17 19 10 8 7 6 8 5 6 7 6 6 2 2 3 4 6 6 4 4 4 4 5 7 14 6 11 15 17 22 25
18 18 21 22 20 21 20 20 17 16 16 17 16 18 15 13 16 15 16 19 13 10 8 7 6 6 3 3 3 2 1 3 1 6 3 3 7 10 12 8 14 19 21 22 30
16 19 19 20 21 21 22 19 17 18 16 15 15 11 14 13 16 14 20 19 12 16 10 9 6 4 1 1 3 3 3 3 6 4 1 3 14 18 19 15 23 20 20 21 26
12 12 15 20 19 20 23 18 16 17 16 14 15 11 17 11 6 6 10 12 15 14 11 7 4 2 2 4 4 1 2 3 8 1 6 15 13 15 23 15 22 21 22 20 22
11 13 13 14 17 18 21 16 7 6 10 11 5 10 7 5 8 6 10 8 13 7 6 3 4 13 12 8 3 2 3 9 9 11 4 10 13 18 27 17 17 17 15 16 18
10 12 14 14 13 14 14 5 1 5 9 14 24 27 30 28 11 8 8 10 10 11 8 3 12 9 5 7 7 7 10 11 10 7 3 14 17 16 9 8 6 8 7 11 13
10 12 12 11 11 8 7 4 4 8 6 11 23 25 31 23 21 29 10 7 5 8 12 14 6 1 11 6 6 8 8 8 9 6 5 8 7 7 3 7 7 4 6 4 6
9 11 11 10 7 3 2 2 14 2 3 7 6 14 22 20 13 29 27 9 5 14 7 8 11 5 5 6 9 10 11 14 9 4 3 2 6 5 4 9 6 7 9 7 10
9 11 10 8 3 0 1 9 10 16 5 7 5 7 16 24 15 15 36 23 8 7 7 8 8 9 13 21 10 8 5 6 4 4 1 3 3 5 1 3 4 8 10 10 13
10 10 10 8 5 4 5 7 18 4 7 7 5 3 2 19 12 10 15 24 17 5 3 7 5 7 9 5 13 4 3 3 2 2 4 10 9 6 6 5 2 5 9 9 13
10 10 9 8 4 4 5 10 3 4 4 8 11 6 9 4 8 12 13 15 16 11 14 15 13 4 5 4 5 4 4 1 2 3 7 1 7 10 7 6 5 5 9 11 11
11 11 10 9 9 6 2 3 3 10 13 1 4 6 11 9 8 9 9 15 21 15 12 15 13 18 14 22 10 12 9 6 6 5 2 3 7 7 8 12 6 5 5 11 16
11 12 12 9 7 2 2 3 8 6 2 6 11 5 11 10 8 9 16 21 17 24 19 11 14 3 8 10 17 7 9 19 4 2 3 5 5 10 8 6 8 7 2 9 12
12 10 12 8 6 7 2 7 8 10 4 9 10 9 18 18 12 12 12 13 20 20 19 11 7 10 4 5 11 10 10 5 5 7 10 5 7 9 6 10 10 6 2 7 9
8 3 2 8 13 10 5 8 8 14 5 5 5 12 12 4 18 13 13 13 20 21 21 5 10 2 7 10 15 8 9 3 4 4 5 5 7 8 17 8 10 7 7 8 11
7 2 7 19 10 7 7 6 10 13 12 14 7 13 16 18 11 14 17 18 24 27 15 22 8 13 13 3 5 11 13 14 6 7 4 5 9 3 9 5 8 9 7 6 8
9 9 13 23 7 10 5 10 13 13 8 6 10 12 16 14 10 16 8 11 10 14 12 11 8 9 5 5 2 7 7 14 7 3 10 8 8 1 4 5 7 10 2 6 9
11 4 12 22 18 12 13 13 14 17 17 19 15 13 8 17 18 12 9 2 1 9 29 10 5 15 20 22 7 7 8 12 15 3 17 14 16 4 6 7 8 1 8 11 13
16 7 12 6 15 18 11 6 13 11 16 15 10 23 23 9 17 21 23 24 8 3 1 7 10 13 21 14 5 6 13 14 16 24 11 17 15 9 8 7 4 3 4 3 7
15 9 13 13 17 20 20 21 23 21 9 10 20 21 18 27 19 22 15 7 13 2 3 0 2 5 14 11 12 10 5 16 21 12 13 13 14 7 9 7 3 4 3 3 6
29 23 15 15 12 14 18 24 27 27 24 29 22 19 19 25 27 31 31 36 6 6 2 2 3 5 23 5 7 3 19 9 9 6 12 13 16 7 6 7 7 7 5 7 7
Wind_Direction
262 264 270 276 286 295 302 314 319 321 327 331 337 343 341 345 345 306 231 220 216 205 157 161 155 156 149 172 130 126 105 149 177 286 312 322 341 328 300 199 207 220 228 217 36
266 265 266 273 279 288 298 304 314 315 317 322 326 334 340 344 4 58 176 181 168 166 164 158 151 160 134 152 178 125 163 200 208 239 278 309 295 304 270 249 244 227 241 240 245
267 271 272 273 278 280 288 296 303 310 313 315 319 324 335 344 39 41 14 201 209 199 180 189 166 178 176 170 202 163 212 198 251 249 262 304 309 322 275 278 255 254 239 235 234
265 268 272 274 278 283 287 290 297 303 308 310 314 319 328 334 126 330 340 201 208 217 218 203 210 195 197 230 176 245 237 238 253 233 300 289 292 275 242 256 295 305 260 247 233
268 270 270 275 277 280 283 288 293 298 304 307 311 316 326 310 273 283 248 189 213 234 239 219 199 195 215 195 216 225 265 247 252 279 283 262 256 266 253 264 273 274 264 257 244
279 271 274 274 275 277 280 283 288 294 300 305 309 310 318 296 263 269 248 210 216 229 250 232 240 234 227 221 206 236 274 284 284 275 257 235 251 180 262 263 249 250 251 263 256
275 279 273 272 276 276 279 280 283 290 294 300 308 309 297 269 265 255 248 237 236 238 241 234 261 249 218 249 277 280 295 309 309 312 249 187 244 215 258 268 252 242 259 259 245
265 272 279 273 273 276 277 280 284 283 287 293 300 306 279 276 260 255 249 243 242 238 219 214 288 257 257 306 343 336 12 329 303 335 19 319 285 305 303 277 282 279 272 267 242
278 271 273 278 274 272 275 279 285 285 286 285 294 295 275 262 253 257 244 243 241 230 220 231 279 225 290 21 309 22 292 308 315 349 325 15 297 278 291 276 280 285 280 282 243
292 293 277 271 275 274 272 280 283 286 281 280 268 288 254 256 250 255 235 230 217 214 230 214 188 206 102 180 250 204 295 271 285 249 324 295 270 282 280 273 272 282 281 281 249
290 290 295 287 275 278 281 283 293 284 238 213 230 214 264 299 271 260 244 212 190 189 186 171 193 228 212 213 244 290 260 272 278 276 280 271 292 289 287 283 277 273 261 274 260
302 298 294 297 298 274 283 286 137 327 299 255 245 253 253 268 286 291 227 186 171 196 141 169 230 234 201 207 238 267 285 281 282 280 263 309 306 296 309 276 278 292 260 268 269
304 304 303 306 306 275 264 244 246 311 277 276 250 249 248 248 249 254 242 214 172 163 191 208 191 202 199 194 204 240 254 263 258 315 267 306 293 328 320 316 312 330 330 352 324
305 312 315 319 302 322 110 253 226 155 313 282 231 246 219 222 250 245 238 233 202 201 163 228 232 198 173 210 184 264 215 248 267 275 252 341 297 291 321 316 312 345 3 19 14
300 308 317 333 325 4 5 44 150 151 244 277 258 276 218 186 207 227 230 219 217 179 165 215 177 189 216 233 177 243 187 222 242 219 252 200 223 269 290 249 297 349 21 32 31
295 299 306 318 318 278 263 12 124 88 240 283 284 224 196 222 227 192 178 202 218 186 250 229 200 180 203 176 189 177 147 66 69 157 229 224 206 263 212 194 267 310 11 22 31
284 288 295 299 301 299 329 137 95 200 123 232 223 181 206 212 252 219 177 173 191 191 221 215 225 202 167 144 175 183 106 284 243 217 236 182 191 246 243 216 206 276 344 22 31
272 272 269 267 288 311 38 97 236 198 201 192 259 213 199 178 215 228 215 206 208 198 217 214 236 198 193 211 194 201 171 180 222 209 241 149 222 242 240 216 213 250 357 66 64
271 273 273 264 274 293 179 168 216 209 237 253 257 265 228 221 198 185 220 222 207 202 209 201 230 166 191 190 185 172 188 230 227 87 253 206 253 281 249 233 227 210 121 99 73
267 278 279 255 212 155 124 240 238 198 340 357 248 248 241 218 199 185 199 222 226 216 212 211 243 209 156 125 214 195 151 121 205 215 235 221 238 227 209 221 214 189 146 91 28
245 279 176 184 169 178 206 228 264 240 186 211 303 280 276 305 219 208 202 207 210 216 214 187 219 181 132 201 179 182 215 178 165 187 213 250 236 215 218 204 178 159 136 46 23
211 200 201 171 179 210 220 205 250 266 235 230 264 271 272 278 303 236 216 217 196 204 197 211 209 229 208 135 225 201 211 185 194 204 236 257 250 223 224 200 169 147 123 66 42
213 195 190 193 210 221 240 241 243 255 229 230 243 218 273 303 270 263 253 233 215 193 188 181 210 227 230 235 112 212 195 200 197 61 209 208 250 309 207 195 182 166 133 70 49
196 196 190 212 229 225 224 249 251 251 246 247 256 246 280 284 280 283 271 293 178 216 215 179 196 214 226 227 185 206 202 204 195 165 236 226 241 206 206 204 163 22 29 24 14
200 205 194 198 219 218 225 243 246 241 233 224 234 235 240 260 281 272 272 254 278 178 248 177 202 214 236 240 191 205 217 199 202 222 220 250 231 213 222 229 188 61 47 20 20
212 194 207 227 194 207 217 231 241 249 251 242 237 248 242 235 234 277 316 246 260 301 129 155 303 189 245 230 229 248 222 208 220 233 238 243 244 208 230 175 168 152 168 90 65
240 232 214 215 205 193 211 220 229 240 250 246 257 268 267 256 253 266 293 283 278 331 97 115 112 231 248 206 168 220 229 181 192 186 216 223 237 157 198 178 161 156 142 120 101